EW6135 Weather Reports


Display with metric or nautical units.
time (UTC)temp
F
wind
direction
speed
MPH
gust
MPH
rain 1hr
in
rain 24hr
in
rain mn
in
humidity
%
barometer
mb
20260507164014 70 243 0.0 9.0 0.06 0.59 0.57 96 1009.8
20260507163514 70 271 3.0 7.0 0.06 0.59 0.57 96 1009.9
20260507163014 71 217 2.0 8.0 0.05 0.57 0.56 96 1010.1
20260507162515 71 288 2.0 8.0 0.04 0.56 0.56 96 1010.1
20260507162015 71 238 3.0 8.0 0.02 0.55 0.54 96 1010.3
20260507161013 71 228 3.0 11.0 0.01 0.54 0.53 95 1010.3
20260507160516 71 286 2.0 11.0 0.01 0.54 0.53 94 1010.3
20260507160025 72 248 2.0 9.0 0.00 0.53 0.52 94 1010.2
20260507155517 72 327 4.0 13.0 0.00 0.53 0.52 94 1010.3
20260507155012 72 202 5.0 13.0 0.00 0.53 0.52 94 1010.2
20260507154512 72 227 3.0 10.0 0.00 0.53 0.52 94 1010.2
20260507154011 72 259 3.0 11.0 0.00 0.53 0.52 94 1010.1
20260507153511 72 266 4.0 11.0 0.00 0.53 0.52 95 1010.0
20260507153011 72 294 4.0 11.0 0.00 0.53 0.52 95 1009.9
20260507152511 72 250 3.0 11.0 0.00 0.53 0.52 95 1010.0
20260507152011 72 290 3.0 7.0 0.00 0.53 0.52 95 1010.0
20260507151010 72 289 1.0 8.0 0.00 0.53 0.52 95 1009.7
20260507150513 72 282 2.0 8.0 0.00 0.53 0.52 96 1009.8
20260507150013 72 164 1.0 7.0 0.00 0.53 0.52 96 1009.7
20260507145509 72 234 0.0 8.0 0.00 0.53 0.52 96 1009.8
20260507145006 72 208 2.0 8.0 0.00 0.53 0.52 96 1009.8
20260507144509 72 289 3.0 9.0 0.00 0.53 0.52 96 1009.7
20260507144007 71 243 3.0 9.0 0.00 0.53 0.52 97 1009.8
20260507143505 71 246 1.0 10.0 0.00 0.53 0.52 97 1009.9
20260507143005 71 202 3.0 7.0 0.00 0.53 0.52 97 1010.0
20260507142505 71 270 3.0 7.0 0.01 0.53 0.52 97 1009.7
20260507142004 71 250 2.0 6.0 0.01 0.53 0.52 98 1009.4
20260507141006 71 245 1.0 5.0 0.01 0.53 0.52 98 1009.1
20260507140503 71 231 0.0 5.0 0.01 0.53 0.52 98 1009.1
20260507140000 70 244 0.0 3.0 0.01 0.53 0.52 98 1009.5
20260507135600 70 114 0.0 6.0 0.01 0.53 0.52 98 1009.7
20260507135058 70 264 2.0 7.0 0.01 0.53 0.52 98 1010.0
20260507134601 70 244 2.0 10.0 0.01 0.53 0.52 98 1010.2
20260507134056 70 242 2.0 10.0 0.01 0.53 0.52 98 1010.5
20260507133556 70 240 1.0 5.0 0.01 0.53 0.52 98 1010.6
20260507133101 70 250 0.0 4.0 0.01 0.53 0.52 98 1010.7
20260507132554 70 297 1.0 6.0 0.02 0.53 0.52 98 1010.8
20260507132054 70 233 2.0 7.0 0.02 0.52 0.51 98 1010.8
20260507131655 69 276 1.0 5.0 0.02 0.52 0.51 98 1010.9
20260507131055 69 219 0.0 6.0 0.02 0.52 0.51 98 1010.8
20260507130555 69 283 0.0 6.0 0.02 0.52 0.51 98 1011.1
20260507130056 69 259 0.0 4.0 0.04 0.52 0.51 98 1011.1
20260507125554 69 157 0.0 6.0 0.04 0.52 0.51 98 1011.0
20260507125054 69 252 1.0 6.0 0.05 0.52 0.51 98 1011.0
20260507124556 69 231 1.0 4.0 0.06 0.52 0.51 98 1011.2
20260507124054 69 148 0.0 4.0 0.06 0.52 0.51 99 1011.3
20260507123554 69 98 0.0 4.0 0.06 0.52 0.51 99 1011.3
20260507123111 69 193 1.0 4.0 0.08 0.52 0.51 98 1011.3
20260507122553 69 316 0.0 4.0 0.13 0.51 0.50 98 1011.8
20260507122056 69 249 1.0 5.0 0.15 0.51 0.50 98 1012.1
20260507121653 69 279 1.0 5.0 0.24 0.50 0.49 98 1012.4
20260507121054 69 230 0.0 4.0 0.24 0.50 0.49 98 1012.4
20260507120553 69 261 2.0 4.0 0.25 0.50 0.49 98 1012.6
20260507120053 69 250 2.0 4.0 0.24 0.49 0.48 98 1012.7
20260507115553 69 252 1.0 4.0 0.23 0.48 0.47 98 1012.6
20260507115053 69 264 2.0 6.0 0.23 0.48 0.47 98 1012.6
20260507114556 69 257 2.0 0.0 0.00 0.00 0.46 98 1012.6
20260507114054 69 224 2.0 11.0 0.21 0.46 0.45 98 1012.5
20260507113552 69 300 2.0 12.0 0.21 0.46 0.45 98 1012.6
20260507113052 69 249 3.0 8.0 0.20 0.45 0.44 98 1012.7
20260507112552 69 245 2.0 8.0 0.15 0.40 0.39 98 1012.6
20260507112051 69 225 1.0 3.0 0.13 0.37 0.36 98 1012.8
20260507111652 69 249 1.0 2.0 0.03 0.27 0.26 98 1012.7
20260507111050 69 222 0.0 3.0 0.02 0.26 0.25 98 1012.5
20260507110551 69 277 0.0 3.0 0.02 0.26 0.25 98 1012.4
20260507110052 69 236 0.0 4.0 0.01 0.25 0.24 98 1012.3
20260507105550 69 228 1.0 4.0 0.01 0.25 0.24 98 1012.1
20260507105049 69 269 1.0 2.0 0.01 0.25 0.24 98 1011.9
20260507104557 69 264 0.0 4.0 0.01 0.25 0.24 98 1011.7
20260507104056 69 266 1.0 4.0 0.01 0.25 0.24 98 1011.7
20260507103551 69 264 1.0 4.0 0.01 0.25 0.24 98 1011.8
20260507103050 69 250 0.0 2.0 0.01 0.25 0.24 98 1011.8
20260507102549 69 276 0.0 2.0 0.01 0.25 0.24 98 1011.7
20260507102054 69 276 1.0 4.0 0.01 0.25 0.24 98 1011.8
20260507101649 69 253 0.0 3.0 0.00 0.24 0.23 98 1011.8
20260507101050 69 274 1.0 3.0 0.00 0.24 0.23 98 1011.8
20260507100551 69 251 0.0 3.0 0.00 0.24 0.23 98 1011.7
20260507100057 69 228 0.0 4.0 0.00 0.24 0.23 98 1011.7
20260507095551 69 239 0.0 4.0 0.00 0.25 0.23 98 1011.7
20260507095050 69 259 0.0 3.0 0.00 0.25 0.23 98 1011.6
20260507094551 69 229 0.0 3.0 0.00 0.25 0.23 98 1011.8
20260507094050 69 228 1.0 3.0 0.00 0.25 0.23 98 1011.8
20260507093550 69 243 0.0 4.0 0.00 0.25 0.23 98 1011.7
20260507093050 69 271 1.0 5.0 0.00 0.25 0.23 98 1011.9
20260507092551 69 243 2.0 5.0 0.00 0.25 0.23 98 1011.8
20260507092049 69 306 2.0 4.0 0.00 0.25 0.23 98 1012.0
20260507091650 69 250 0.0 2.0 0.01 0.25 0.23 98 1011.7
20260507091048 69 257 0.0 2.0 0.01 0.25 0.23 98 1011.6
20260507090547 68 273 0.0 2.0 0.02 0.25 0.23 98 1011.1
20260507090057 68 298 0.0 1.0 0.02 0.25 0.23 98 1011.0
20260507085547 68 107 0.0 0.0 0.03 0.25 0.23 98 1010.9
20260507085047 68 107 0.0 2.0 0.05 0.25 0.23 98 1010.8
20260507084553 68 108 0.0 2.0 0.07 0.25 0.23 98 1010.7
20260507084045 68 359 0.0 1.0 0.08 0.25 0.23 98 1010.8
20260507083544 68 359 0.0 1.0 0.08 0.25 0.23 98 1011.1
20260507083044 68 359 0.0 0.0 0.08 0.25 0.23 98 1011.2
20260507082544 68 359 0.0 1.0 0.09 0.25 0.23 97 1011.2
20260507082043 68 359 0.0 1.0 0.09 0.25 0.23 97 1011.2
20260507081644 69 359 0.0 1.0 0.08 0.24 0.22 97 1011.4
20260507081043 69 359 0.0 1.0 0.09 0.24 0.22 97 1011.5
20260507080541 69 299 0.0 1.0 0.10 0.23 0.21 97 1011.9
20260507080041 69 299 0.0 1.0 0.11 0.23 0.21 97 1012.0
20260507075540 69 299 0.0 1.0 0.12 0.22 0.20 97 1012.4
20260507075040 69 299 0.0 1.0 0.14 0.21 0.19 97 1012.5
20260507074540 69 299 0.0 1.0 0.16 0.19 0.17 97 1012.3
20260507074039 69 299 0.0 2.0 0.16 0.18 0.16 97 1012.4
20260507073539 69 299 0.0 3.0 0.15 0.17 0.15 97 1012.3
20260507073038 69 231 0.0 4.0 0.15 0.17 0.15 96 1012.4
20260507072538 69 241 1.0 5.0 0.15 0.17 0.15 96 1012.4
20260507072036 69 269 2.0 8.0 0.14 0.16 0.14 96 1012.5
20260507071638 69 237 3.0 9.0 0.14 0.16 0.14 96 1012.8
20260507071043 69 231 2.0 8.0 0.14 0.16 0.14 96 1012.8
20260507070540 70 217 4.0 8.0 0.12 0.14 0.12 96 1012.8
20260507070044 70 238 2.0 11.0 0.10 0.12 0.10 95 1012.9
20260507065539 70 221 4.0 17.0 0.09 0.11 0.09 94 1013.2
20260507065037 71 243 6.0 17.0 0.07 0.09 0.07 94 1013.3
20260507064559 71 220 3.0 13.0 0.03 0.05 0.03 93 1013.3
20260507064036 71 211 5.0 13.0 0.00 0.02 0.00 93 1013.2
20260507063534 71 229 3.0 9.0 0.00 0.02 0.00 93 1013.1
20260507063035 71 233 3.0 9.0 0.00 0.02 0.00 93 1013.0
20260507062535 71 227 2.0 8.0 0.00 0.02 0.00 93 1013.0
20260507062034 71 252 2.0 7.0 0.00 0.02 0.00 93 1012.6
20260507061635 71 237 2.0 8.0 0.00 0.02 0.00 93 1012.5
20260507061030 71 310 4.0 8.0 0.00 0.02 0.00 93 1012.5
20260507060529 71 210 2.0 7.0 0.00 0.02 0.00 93 1012.5
20260507060028 71 212 2.0 6.0 0.00 0.02 0.00 93 1012.5
20260507055528 71 255 2.0 5.0 0.00 0.02 0.00 93 1012.5
20260507055030 71 308 1.0 6.0 0.00 0.02 0.00 93 1012.7
20260507054526 71 236 2.0 6.0 0.00 0.02 0.00 92 1012.6
20260507054026 71 281 2.0 6.0 0.00 0.02 0.00 92 1012.6
20260507053526 71 274 1.0 9.0 0.00 0.02 0.00 92 1012.7
20260507053026 71 231 3.0 9.0 0.00 0.02 0.00 92 1012.7
20260507052527 71 216 2.0 7.0 0.00 0.02 0.00 92 1012.6
20260507052026 71 231 2.0 7.0 0.00 0.02 0.00 92 1012.5
20260507051625 71 266 1.0 8.0 0.00 0.02 0.00 91 1012.7
20260507051026 71 238 2.0 8.0 0.00 0.02 0.00 91 1012.7
20260507050527 71 248 2.0 9.0 0.00 0.02 0.00 91 1012.7
20260507050037 71 233 0.0 9.0 0.00 0.02 0.00 91 1012.8
20260507045524 71 243 0.0 6.0 0.00 0.02 0.00 91 1012.8
20260507045027 71 68 1.0 8.0 0.00 0.02 0.00 90 1012.8
20260507044524 71 276 2.0 8.0 0.00 0.02 0.00 91 1012.8
20260507044023 71 237 3.0 8.0 0.00 0.02 0.00 91 1012.9
20260507043523 71 260 4.0 8.0 0.00 0.02 0.00 91 1013.0
20260507043021 71 290 3.0 10.0 0.00 0.02 0.00 91 1013.1
20260507042522 71 225 2.0 10.0 0.00 0.02 0.00 90 1013.0
20260507042021 71 245 2.0 8.0 0.00 0.02 0.00 90 1012.8
20260507041620 71 316 3.0 9.0 0.00 0.02 0.00 90 1012.9
20260507041022 71 245 3.0 9.0 0.00 0.02 0.00 90 1012.9
20260507040520 71 286 1.0 6.0 0.00 0.02 0.00 89 1013.0
20260507040019 71 266 1.0 8.0 0.00 0.02 0.00 89 1012.9
20260507035518 71 267 2.0 10.0 0.00 0.02 0.02 89 1012.9
20260507035018 71 255 5.0 10.0 0.00 0.02 0.02 89 1013.1
20260507034518 71 257 3.0 11.0 0.00 0.02 0.02 89 1013.1
20260507034019 71 273 3.0 6.0 0.00 0.02 0.02 88 1013.1
20260507033519 71 262 3.0 11.0 0.00 0.02 0.02 88 1013.1
20260507033020 71 287 2.0 10.0 0.00 0.02 0.02 88 1013.1
20260507032517 71 293 3.0 7.0 0.00 0.02 0.02 88 1013.1
20260507032017 71 231 3.0 7.0 0.00 0.02 0.02 88 1013.1
20260507031617 71 254 2.0 8.0 0.00 0.02 0.02 88 1013.2
20260507031018 71 275 1.0 11.0 0.00 0.02 0.02 87 1013.2
20260507030519 71 238 0.0 11.0 0.00 0.02 0.02 87 1013.1
20260507030026 71 234 3.0 10.0 0.00 0.02 0.02 87 1013.1
20260507025517 71 238 2.0 11.0 0.00 0.02 0.02 87 1013.2
20260507025017 71 215 3.0 10.0 0.00 0.02 0.02 87 1013.2
20260507024524 71 257 1.0 11.0 0.00 0.02 0.02 87 1013.4
20260507024016 71 217 3.0 11.0 0.00 0.02 0.02 86 1013.2
20260507023516 71 257 2.0 8.0 0.00 0.02 0.02 86 1013.2
20260507023017 71 227 3.0 9.0 0.00 0.02 0.02 86 1013.2
20260507022516 71 176 2.0 10.0 0.00 0.02 0.02 85 1013.2
20260507022016 71 141 2.0 11.0 0.00 0.02 0.02 85 1013.3
20260507021616 71 239 2.0 12.0 0.00 0.02 0.02 85 1013.3
20260507021018 71 229 1.0 12.0 0.00 0.02 0.02 85 1013.3
20260507020518 71 217 3.0 12.0 0.00 0.02 0.02 84 1013.4
20260507020018 71 272 2.0 6.0 0.00 0.02 0.02 84 1013.4
20260507015521 71 219 1.0 8.0 0.00 0.02 0.02 84 1013.4
20260507015015 71 252 3.0 7.0 0.00 0.02 0.02 83 1013.3
20260507014515 71 191 3.0 7.0 0.00 0.02 0.02 83 1013.4
20260507014015 71 275 2.0 7.0 0.00 0.02 0.02 83 1013.5
20260507013516 71 183 2.0 7.0 0.00 0.02 0.02 83 1013.5
20260507013016 71 206 1.0 7.0 0.00 0.02 0.02 83 1013.6
20260507012515 71 235 3.0 7.0 0.00 0.02 0.02 83 1013.4
20260507012014 71 275 2.0 10.0 0.00 0.02 0.02 83 1013.3
20260507011615 71 315 1.0 11.0 0.00 0.02 0.02 83 1013.3
20260507011013 71 233 3.0 11.0 0.00 0.02 0.02 83 1013.3
20260507010514 71 236 3.0 10.0 0.00 0.02 0.02 84 1013.3
20260507010017 71 260 3.0 10.0 0.00 0.02 0.02 84 1013.3
20260507005513 71 241 2.0 12.0 0.01 0.04 0.02 84 1013.4
20260507005013 71 208 2.0 12.0 0.01 0.04 0.02 84 1013.2
20260507004515 71 230 2.0 7.0 0.01 0.04 0.02 83 1013.1
20260507004013 71 259 1.0 7.0 0.01 0.04 0.02 82 1013.1
20260507003512 71 151 2.0 9.0 0.01 0.04 0.02 81 1013.2
20260507003012 71 240 3.0 11.0 0.01 0.04 0.02 81 1013.2
20260507002512 71 101 3.0 11.0 0.01 0.04 0.02 80 1013.2
20260507002016 71 70 1.0 11.0 0.01 0.04 0.02 78 1013.2
20260507001613 71 274 3.0 8.0 0.01 0.04 0.02 76 1013.2
20260507001014 71 280 1.0 8.0 0.01 0.04 0.02 76 1013.2
20260507000513 71 217 2.0 10.0 0.01 0.04 0.02 76 1013.0
20260507000012 72 257 3.0 10.0 0.01 0.04 0.02 75 1013.0
20260506235513 72 250 2.0 10.0 0.01 0.04 0.02 75 1013.1
20260506235011 72 255 3.0 10.0 0.00 0.03 0.01 75 1013.0
20260506234512 72 184 3.0 13.0 0.00 0.03 0.01 75 1013.1
20260506234012 72 251 2.0 13.0 0.00 0.03 0.01 74 1013.1
20260506233514 73 234 3.0 11.0 0.00 0.03 0.01 74 1013.0
20260506233013 73 207 3.0 11.0 0.00 0.03 0.01 74 1012.9
20260506232512 73 233 0.0 11.0 0.00 0.03 0.01 74 1013.0
20260506232013 73 257 4.0 9.0 0.00 0.03 0.01 73 1012.9
20260506231612 73 286 0.0 9.0 0.00 0.03 0.01 72 1012.9
20260506231012 73 250 1.0 9.0 0.00 0.03 0.01 72 1013.0
20260506230509 73 257 2.0 13.0 0.00 0.03 0.01 72 1013.1
20260506230018 73 184 2.0 13.0 0.00 0.03 0.01 71 1013.2
20260506225509 73 269 3.0 16.0 0.00 0.03 0.01 71 1013.1
20260506225009 73 233 7.0 16.0 0.00 0.03 0.01 70 1013.0
20260506224510 73 217 4.0 12.0 0.00 0.03 0.01 70 1012.9
20260506224008 73 307 3.0 13.0 0.00 0.03 0.01 70 1012.9
20260506223508 73 218 4.0 13.0 0.00 0.03 0.01 70 1012.9
20260506223008 73 219 3.0 9.0 0.00 0.03 0.01 70 1013.0
20260506222508 73 309 2.0 15.0 0.00 0.03 0.01 71 1013.4
20260506222008 73 260 3.0 15.0 0.00 0.03 0.01 71 1013.4
20260506221636 73 281 5.0 15.0 0.00 0.03 0.01 70 1013.3
20260506221009 73 239 2.0 8.0 0.00 0.03 0.01 70 1013.2
20260506220510 74 280 2.0 13.0 0.00 0.03 0.01 71 1013.0
20260506220015 74 241 4.0 13.0 0.00 0.03 0.01 70 1012.9
20260506215512 74 241 2.0 10.0 0.00 0.03 0.01 72 1012.9
20260506215008 74 271 4.0 11.0 0.00 0.03 0.01 72 1013.0
20260506214509 74 260 4.0 9.0 0.00 0.03 0.01 72 1012.9
20260506214009 75 269 1.0 9.0 0.00 0.03 0.01 72 1012.7
20260506213507 75 124 2.0 8.0 0.00 0.03 0.01 71 1012.6
20260506213006 75 230 1.0 16.0 0.00 0.03 0.01 72 1012.6
20260506212504 76 221 4.0 15.0 0.00 0.03 0.01 72 1013.1
20260506212002 76 268 6.0 13.0 0.00 0.03 0.01 72 1013.5
20260506211603 77 200 6.0 15.0 0.00 0.03 0.01 73 1013.9
20260506211004 77 243 5.0 14.0 0.00 0.03 0.01 73 1014.0
20260506210503 77 221 4.0 13.0 0.00 0.03 0.01 73 1014.0
20260506210005 77 255 4.0 16.0 0.00 0.03 0.01 74 1013.8
20260506205502 77 208 7.0 21.0 0.00 0.03 0.01 74 1013.7
20260506205003 77 240 5.0 21.0 0.00 0.03 0.01 74 1013.5
20260506204502 78 198 6.0 18.0 0.00 0.03 0.01 74 1013.7
20260506204004 78 233 6.0 22.0 0.00 0.03 0.01 74 1013.9
20260506203501 78 223 5.0 22.0 0.00 0.03 0.01 75 1014.0
20260506203001 78 235 7.0 14.0 0.00 0.03 0.01 75 1013.8
20260506202601 78 143 5.0 26.0 0.00 0.03 0.01 75 1013.8
20260506202101 78 94 6.0 26.0 0.00 0.03 0.01 75 1013.9
20260506201600 79 213 2.0 15.0 0.00 0.03 0.01 77 1014.0
20260506201059 79 294 1.0 15.0 0.00 0.03 0.01 77 1013.9
20260506200602 78 181 5.0 17.0 0.00 0.03 0.01 76 1014.1
20260506200059 78 243 5.0 17.0 0.00 0.03 0.01 76 1014.2
20260506195559 78 244 7.0 17.0 0.00 0.03 0.01 76 1014.1
20260506195059 78 271 6.0 19.0 0.00 0.03 0.01 76 1014.1
20260506194559 79 243 3.0 15.0 0.00 0.03 0.01 76 1014.1
20260506194058 79 192 5.0 18.0 0.00 0.03 0.01 76 1014.2
20260506193558 78 265 6.0 20.0 0.00 0.03 0.01 76 1014.2
20260506193059 78 255 5.0 15.0 0.00 0.03 0.01 76 1014.3
20260506192556 78 237 7.0 17.0 0.00 0.03 0.01 77 1014.3
20260506192057 78 237 8.0 23.0 0.00 0.03 0.01 76 1014.4
20260506191608 78 239 7.0 19.0 0.00 0.03 0.01 76 1014.6
20260506191056 78 254 8.0 19.0 0.00 0.03 0.01 75 1014.5
20260506190556 78 229 8.0 17.0 0.00 0.03 0.01 76 1014.6
20260506190057 77 269 5.0 17.0 0.00 0.03 0.01 77 1014.7
20260506185555 77 290 7.0 17.0 0.00 0.03 0.01 76 1014.6
20260506185055 78 254 7.0 14.0 0.00 0.03 0.01 74 1014.6
20260506184615 78 88 2.0 12.0 0.00 0.03 0.01 75 1014.6
20260506184056 77 217 2.0 14.0 0.00 0.03 0.01 78 1014.8
20260506183558 77 291 7.0 15.0 0.00 0.03 0.01 77 1014.8
20260506183057 77 243 5.0 15.0 0.00 0.03 0.01 76 1014.7
20260506182554 77 288 7.0 13.0 0.00 0.03 0.01 74 1014.7
20260506182054 78 222 4.0 13.0 0.00 0.03 0.01 74 1014.6
20260506181553 79 218 4.0 19.0 0.00 0.03 0.01 75 1014.8
20260506181053 79 151 6.0 19.0 0.00 0.03 0.01 75 1014.8
20260506180552 79 179 7.0 19.0 0.00 0.03 0.01 74 1014.9
20260506180052 79 113 5.0 15.0 0.00 0.03 0.01 73 1014.8
20260506175552 78 274 7.0 18.0 0.00 0.03 0.01 73 1015.1
20260506175050 79 193 7.0 18.0 0.00 0.03 0.01 72 1015.0
20260506174549 80 197 5.0 13.0 0.00 0.03 0.01 72 1015.4
20260506174049 80 248 6.0 17.0 0.00 0.03 0.01 73 1015.3
20260506173549 79 223 4.0 17.0 0.00 0.03 0.01 73 1015.5
20260506173050 80 272 4.0 17.0 0.00 0.03 0.01 72 1015.6
20260506172549 80 245 3.0 17.0 0.00 0.03 0.01 73 1015.5
20260506172048 79 218 2.0 14.0 0.00 0.03 0.01 75 1015.5
20260506171556 79 263 6.0 16.0 0.00 0.03 0.01 74 1015.6
20260506171047 79 158 6.0 16.0 0.00 0.03 0.01 73 1015.6
20260506170545 79 270 4.0 15.0 0.00 0.03 0.01 75 1015.6
20260506170051 79 269 7.0 16.0 0.00 0.03 0.01 73 1015.6
20260506165545 79 252 4.0 20.0 0.00 0.03 0.01 72 1015.7
20260506165045 79 205 4.0 18.0 0.00 0.03 0.01 75 1015.7
20260506164547 78 271 5.0 17.0 0.00 0.03 0.01 71 1015.7